• In Italy
  • List of Countries
  • For 7 days
  • Water Temperature
  • Satellite Maps
  • Weather Map
  • Weather Widgets
  • user-avatar
    Login

    Hourly Weather Agartala

    Today, 23 July, Monday

    Time Temperature Precipitation Wind Pressure Humidity
    00:00 +28°C° 0 mm 3 mps 749 mmHg 92%
    01:00 +28°C° 0.1 mm 3 mps 749 mmHg 92%
    02:00 +28°C° 0.1 mm 3 mps 749 mmHg 93%
    03:00 +27°C° 0.1 mm 3 mps 749 mmHg 93%
    04:00 +27°C° 1.3 mm 3 mps 749 mmHg 93%
    05:00 +27°C° 1.3 mm 3 mps 749 mmHg 94%
    06:00 +27°C° 1.3 mm 3 mps 749 mmHg 94%
    07:00 +28°C° 0.9 mm 3 mps 749 mmHg 92%
    08:00 +29°C° 0.9 mm 4 mps 749 mmHg 90%
    09:00 +29°C° 0.9 mm 4 mps 749 mmHg 88%
    10:00 +30°C° 1 mm 4 mps 749 mmHg 85%
    11:00 +32°C° 1 mm 4 mps 749 mmHg 82%
    12:00 +33°C° 1 mm 4 mps 749 mmHg 79%
    13:00 +33°C° 1.5 mm 4 mps 748 mmHg 79%
    14:00 +33°C° 1.5 mm 4 mps 748 mmHg 80%
    15:00 +33°C° 1.5 mm 4 mps 748 mmHg 80%
    16:00 +32°C° 0.4 mm 4 mps 748 mmHg 82%
    17:00 +32°C° 0.4 mm 4 mps 748 mmHg 84%
    18:00 +30°C° 0.4 mm 4 mps 748 mmHg 87%
    19:00 +30°C° 0.2 mm 4 mps 748 mmHg 88%
    20:00 +29°C° 0.2 mm 4 mps 749 mmHg 89%
    21:00 +29°C° 0.2 mm 4 mps 749 mmHg 91%
    22:00 +28°C° 0.3 mm 3 mps 749 mmHg 91%
    23:00 +28°C° 0.3 mm 3 mps 750 mmHg 92%

    Tomorrow, 24 July, Tuesday

    Time Temperature Precipitation Wind Pressure Humidity
    00:00 +28°C° 0.3 mm 3 mps 750 mmHg 93%
    01:00 +28°C° 0.3 mm 3 mps 749 mmHg 93%
    02:00 +28°C° 0.3 mm 3 mps 749 mmHg 93%
    03:00 +28°C° 0.3 mm 3 mps 749 mmHg 94%
    04:00 +28°C° 0.2 mm 2 mps 749 mmHg 94%
    05:00 +27°C° 0.2 mm 2 mps 749 mmHg 94%
    06:00 +27°C° 0.2 mm 2 mps 749 mmHg 94%
    07:00 +28°C° 0.4 mm 3 mps 749 mmHg 90%
    08:00 +29°C° 0.4 mm 3 mps 749 mmHg 87%
    09:00 +30°C° 0.4 mm 3 mps 750 mmHg 83%
    10:00 +31°C° 1.5 mm 3 mps 750 mmHg 81%
    11:00 +33°C° 1.5 mm 3 mps 749 mmHg 79%
    12:00 +33°C° 1.5 mm 3 mps 749 mmHg 77%
    13:00 +33°C° 2.7 mm 3 mps 749 mmHg 80%
    14:00 +31°C° 2.7 mm 3 mps 748 mmHg 84%
    15:00 +31°C° 2.7 mm 2 mps 748 mmHg 87%
    16:00 +30°C° 1.2 mm 2 mps 748 mmHg 88%
    17:00 +30°C° 1.2 mm 2 mps 748 mmHg 89%
    18:00 +29°C° 1.2 mm 2 mps 748 mmHg 91%
    19:00 +29°C° 0.3 mm 2 mps 748 mmHg 92%
    20:00 +29°C° 0.3 mm 2 mps 749 mmHg 92%
    21:00 +28°C° 0.3 mm 3 mps 750 mmHg 93%
    22:00 +28°C° 0.8 mm 3 mps 750 mmHg 93%
    23:00 +28°C° 0.8 mm 3 mps 750 mmHg 94%

    Day after tomorrow, 25 July, Wednesday

    Time Temperature Precipitation Wind Pressure Humidity
    00:00 +28°C° 0.8 mm 3 mps 750 mmHg 94%
    01:00 +28°C° 1.2 mm 3 mps 749 mmHg 94%
    02:00 +28°C° 1.2 mm 2 mps 749 mmHg 94%
    03:00 +28°C° 1.2 mm 2 mps 749 mmHg 94%
    04:00 +28°C° 0.7 mm 2 mps 749 mmHg 94%
    05:00 +27°C° 0.7 mm 2 mps 749 mmHg 95%
    06:00 +27°C° 0.7 mm 2 mps 749 mmHg 95%
    07:00 +28°C° 1.1 mm 3 mps 749 mmHg 91%
    08:00 +29°C° 1.1 mm 3 mps 749 mmHg 88%
    09:00 +30°C° 1.1 mm 3 mps 749 mmHg 84%
    10:00 +31°C° 1.3 mm 3 mps 749 mmHg 82%
    11:00 +33°C° 1.3 mm 3 mps 749 mmHg 79%
    12:00 +34°C° 1.3 mm 3 mps 749 mmHg 77%
    13:00 +34°C° 0.9 mm 3 mps 748 mmHg 76%
    14:00 +34°C° 0.9 mm 4 mps 747 mmHg 74%
    15:00 +34°C° 0.9 mm 4 mps 747 mmHg 73%
    16:00 +34°C° 0.7 mm 3 mps 747 mmHg 76%
    17:00 +33°C° 0.7 mm 3 mps 747 mmHg 79%
    18:00 +31°C° 0.7 mm 3 mps 746 mmHg 82%
    19:00 +30°C° 0.4 mm 3 mps 747 mmHg 84%
    20:00 +30°C° 0.4 mm 3 mps 748 mmHg 86%
    21:00 +29°C° 0.4 mm 3 mps 749 mmHg 87%
    22:00 +29°C° 1.5 mm 3 mps 749 mmHg 89%
    23:00 +28°C° 1.5 mm 3 mps 749 mmHg 91%

    26 July, Thursday

    Time Temperature Precipitation Wind Pressure Humidity
    00:00 +28°C° 1.5 mm 3 mps 749 mmHg 93%
    01:00 +28°C° 0.9 mm 3 mps 748 mmHg 93%
    02:00 +28°C° 0.9 mm 3 mps 748 mmHg 93%
    03:00 +28°C° 0.9 mm 3 mps 748 mmHg 93%
    04:00 +27°C° 0.1 mm 3 mps 748 mmHg 94%
    05:00 +27°C° 0.1 mm 3 mps 748 mmHg 94%
    06:00 +27°C° 0.1 mm 3 mps 748 mmHg 94%
    07:00 +29°C° 0.2 mm 3 mps 748 mmHg 89%
    08:00 +30°C° 0.2 mm 3 mps 749 mmHg 84%
    09:00 +31°C° 0.2 mm 3 mps 749 mmHg 79%
    10:00 +34°C° 1.1 mm 3 mps 748 mmHg 74%
    11:00 +35°C° 1.1 mm 2 mps 748 mmHg 69%
    12:00 +36°C° 1.1 mm 2 mps 747 mmHg 64%
    13:00 +36°C° 0.4 mm 2 mps 747 mmHg 64%
    14:00 +36°C° 0.4 mm 2 mps 746 mmHg 64%
    15:00 +36°C° 0.4 mm 2 mps 745 mmHg 64%
    16:00 +36°C° 0.6 mm 2 mps 745 mmHg 69%
    17:00 +35°C° 0.6 mm 2 mps 745 mmHg 74%
    18:00 +34°C° 0.6 mm 2 mps 745 mmHg 79%
    19:00 +32°C° 2 mm 2 mps 746 mmHg 82%
    20:00 +31°C° 2 mm 2 mps 746 mmHg 85%
    21:00 +30°C° 2 mm 2 mps 747 mmHg 88%
    22:00 +29°C° 2.2 mm 2 mps 747 mmHg 89%
    23:00 +29°C° 2.2 mm 3 mps 747 mmHg 89%

    27 July, Friday

    Time Temperature Precipitation Wind Pressure Humidity
    00:00 +29°C° 2.2 mm 3 mps 747 mmHg 89%
    01:00 +29°C° 2.8 mm 2 mps 747 mmHg 90%
    02:00 +29°C° 2.8 mm 2 mps 746 mmHg 90%
    03:00 +29°C° 2.8 mm 2 mps 746 mmHg 90%
    04:00 +28°C° 1.4 mm 2 mps 746 mmHg 91%
    05:00 +28°C° 1.4 mm 2 mps 746 mmHg 91%
    06:00 +28°C° 1.4 mm 3 mps 747 mmHg 92%
    07:00 +29°C° 0.9 mm 3 mps 747 mmHg 88%
    08:00 +30°C° 0.9 mm 3 mps 747 mmHg 85%
    09:00 +32°C° 0.9 mm 4 mps 747 mmHg 82%
    10:00 +33°C° 2.1 mm 3 mps 747 mmHg 79%
    11:00 +34°C° 2.1 mm 3 mps 746 mmHg 77%
    12:00 +35°C° 2.1 mm 3 mps 746 mmHg 74%
    13:00 +35°C° 1.1 mm 2 mps 746 mmHg 74%
    14:00 +35°C° 1.1 mm 2 mps 745 mmHg 74%
    15:00 +35°C° 1.1 mm 2 mps 744 mmHg 74%
    16:00 +34°C° 0.7 mm 2 mps 745 mmHg 77%
    17:00 +32°C° 0.7 mm 2 mps 745 mmHg 81%
    18:00 +32°C° 0.7 mm 2 mps 745 mmHg 84%
    19:00 +31°C° 0.8 mm 2 mps 746 mmHg 87%
    20:00 +30°C° 0.8 mm 3 mps 746 mmHg 89%
    21:00 +30°C° 0.8 mm 3 mps 747 mmHg 91%
    22:00 +29°C° 2.4 mm 3 mps 747 mmHg 91%
    23:00 +29°C° 2.4 mm 3 mps 747 mmHg 91%

    28 July, Saturday

    Time Temperature Precipitation Wind Pressure Humidity
    00:00 +29°C° 2.4 mm 3 mps 747 mmHg 91%
    01:00 +29°C° 1.9 mm 2 mps 746 mmHg 91%
    02:00 +29°C° 1.9 mm 2 mps 746 mmHg 91%
    03:00 +28°C° 1.9 mm 2 mps 746 mmHg 91%
    04:00 +28°C° 1.4 mm 2 mps 746 mmHg 92%
    05:00 +28°C° 1.4 mm 2 mps 746 mmHg 92%
    06:00 +28°C° 1.4 mm 3 mps 746 mmHg 93%
    07:00 +29°C° 0.9 mm 3 mps 747 mmHg 90%
    08:00 +30°C° 0.9 mm 3 mps 747 mmHg 88%
    09:00 +31°C° 0.9 mm 3 mps 747 mmHg 85%
    10:00 +31°C° 2.8 mm 3 mps 747 mmHg 84%
    11:00 +33°C° 2.8 mm 4 mps 747 mmHg 82%
    12:00 +33°C° 2.8 mm 4 mps 747 mmHg 81%
    13:00 +33°C° 2.4 mm 4 mps 746 mmHg 81%
    14:00 +33°C° 2.4 mm 4 mps 746 mmHg 82%
    15:00 +33°C° 2.4 mm 4 mps 745 mmHg 82%
    16:00 +32°C° 1.7 mm 4 mps 746 mmHg 84%
    17:00 +32°C° 1.7 mm 4 mps 746 mmHg 86%
    18:00 +30°C° 1.7 mm 4 mps 746 mmHg 88%
    19:00 +30°C° 0.8 mm 4 mps 747 mmHg 89%
    20:00 +29°C° 0.8 mm 3 mps 747 mmHg 90%
    21:00 +28°C° 0.8 mm 3 mps 748 mmHg 91%
    22:00 +28°C° 0.1 mm 3 mps 748 mmHg 92%
    23:00 +28°C° 0.1 mm 3 mps 748 mmHg 92%
    Show more